Dewpoint
44 44 43 44 45 45 45 43 41 38 37 39 39 46 46 44 44 44 44 44 44 43 43 41 40 38 41 42 42 44 46 47 48 49 51 52 54 56
44 44 44 44 44 45 45 45 44 42 39 40 40 42 42 43 43 43 43 44 44 44 43 41 39 37 39 40 40 43 44 44 45 46 47 48 50 52
41 42 43 43 43 43 44 45 45 44 42 42 42 42 42 42 43 42 42 42 42 43 43 40 38 37 38 39 38 41 42 42 44 44 44 45 46 47
37 39 39 41 42 42 43 43 44 45 43 41 42 41 41 42 41 40 41 41 41 40 41 41 38 36 38 39 37 38 40 40 40 41 41 42 44 44
38 38 39 40 40 41 41 42 42 43 43 43 43 42 41 40 39 38 37 37 35 35 38 40 39 36 39 39 38 34 39 38 38 39 40 40 40 41
38 37 37 38 39 40 41 41 41 41 41 41 42 42 40 40 36 35 33 32 30 34 34 37 34 34 37 38 39 36 32 38 38 38 37 36 36 37
36 36 37 38 40 41 41 41 40 40 40 40 40 38 38 37 36 33 31 31 31 31 30 30 31 30 31 37 39 38 33 34 37 38 35 34 34 35
35 35 37 38 39 41 42 44 42 40 39 38 38 37 37 36 34 33 32 30 26 28 28 24 27 25 27 30 33 36 34 30 36 37 34 33 33 33
34 35 36 37 38 39 40 41 41 43 43 40 38 37 37 36 35 33 31 30 27 26 27 24 25 23 25 27 33 35 35 33 34 37 34 32 32 32
35 35 35 35 36 38 39 38 38 38 38 39 40 40 39 38 36 34 32 29 28 28 28 25 25 23 24 26 30 33 35 34 34 36 34 32 31 31
35 36 36 36 37 39 38 35 34 35 36 37 39 40 41 42 38 32 31 28 27 26 27 25 24 24 25 24 26 32 34 33 36 36 34 34 33 32
35 37 37 38 40 39 37 35 35 34 35 35 36 36 35 39 43 36 34 30 27 30 28 25 24 24 16 26 27 26 28 34 35 36 34 34 34 33
35 36 36 36 37 38 38 38 37 38 37 37 36 36 35 35 34 37 33 32 29 29 29 26 25 26 23 19 24 26 28 30 32 34 36 33 33 33
36 36 35 35 35 35 35 35 36 37 39 37 36 35 35 35 35 34 34 33 32 32 31 27 25 25 21 17 17 24 26 26 29 30 31 32 33 32
37 36 37 37 34 36 36 36 37 35 34 34 34 34 34 35 35 34 34 33 33 32 31 31 28 25 22 20 18 21 22 23 26 26 26 27 27 26
36 36 37 37 37 37 36 35 34 34 34 33 33 33 33 33 34 35 34 33 31 31 30 32 30 28 27 25 23 22 23 19 22 25 26 26 27 27
36 35 31 31 31 32 32 32 33 33 33 33 33 33 32 32 32 33 33 32 31 31 30 29 30 29 28 27 24 24 23 22 23 23 25 24 26 26
34 34 29 29 29 29 29 31 32 32 32 32 31 32 32 32 32 33 33 32 30 31 30 29 27 25 25 25 27 25 23 23 23 24 24 24 24 26
31 28 28 27 27 28 31 32 32 32 31 31 31 31 32 32 32 32 32 31 30 31 30 29 26 24 22 21 23 29 24 23 23 24 24 25 24 25
31 30 27 27 27 27 28 29 32 32 32 31 30 31 32 31 31 31 31 31 30 31 30 28 27 25 24 22 22 24 29 24 23 23 24 25 25 27
28 28 28 29 29 29 29 29 31 32 32 32 31 31 31 31 30 31 31 32 32 30 29 28 28 31 28 27 25 25 26 29 26 24 24 23 22 21
26 26 27 28 29 29 29 29 30 31 32 32 31 31 32 31 31 31 31 31 31 31 30 30 30 30 27 25 23 22 24 26 28 28 28 26 21 16
27 28 29 29 30 31 30 30 29 30 31 32 31 31 31 30 31 31 31 31 31 31 31 29 27 28 27 26 24 22 23 23 23 22 22 24 27 28
Wind_Speed
15 15 14 14 13 14 15 13 11 7 11 3 4 2 3 4 6 8 9 9 8 8 8 8 10 11 11 12 14 14 14 14 16 16 17 18 18 18
12 15 16 15 14 14 15 14 13 14 14 5 8 7 8 12 9 11 11 10 10 9 9 7 8 9 9 9 10 11 10 11 13 13 15 15 15 16
12 13 15 14 16 15 14 14 14 14 19 17 12 7 8 13 16 11 10 10 10 11 11 9 8 7 6 5 7 8 7 8 9 11 13 13 14 14
15 14 15 12 14 15 15 17 17 16 16 22 16 12 13 11 12 12 12 10 9 11 11 11 8 8 7 4 3 5 4 5 6 8 10 10 11 12
13 14 16 14 16 15 15 16 15 15 16 17 18 9 8 5 8 8 10 10 10 12 12 13 10 8 7 6 3 2 2 2 4 6 7 9 9 9
12 14 16 16 17 16 16 16 15 16 14 16 15 12 11 7 5 9 13 5 10 6 7 8 8 8 8 9 8 5 3 2 2 3 4 5 6 6
15 14 14 15 17 16 14 15 14 15 14 15 14 7 8 8 11 4 8 11 9 6 6 5 6 7 9 10 9 9 7 6 5 4 3 2 3 4
16 15 14 16 16 15 14 14 14 15 16 12 12 15 14 11 7 10 8 8 8 2 3 5 3 9 9 9 11 11 11 9 8 6 4 2 2 2
14 16 15 11 14 14 13 12 11 11 16 12 16 16 14 11 10 10 10 9 10 6 3 11 3 9 8 8 11 12 11 10 10 8 5 4 2 1
12 13 13 14 13 12 10 9 10 9 8 9 14 15 15 12 12 9 8 6 5 6 5 8 2 7 7 6 7 10 12 11 11 11 7 5 5 3
12 12 11 13 14 13 8 7 8 10 8 10 12 14 15 15 11 8 8 8 8 5 8 5 3 5 4 5 5 4 9 10 11 13 10 9 8 7
13 11 11 11 9 9 5 7 11 11 10 10 7 5 5 7 12 14 10 12 9 5 4 9 2 1 5 2 3 4 4 6 10 14 12 11 11 7
12 12 8 11 14 12 11 10 13 12 12 11 11 11 8 8 8 10 14 14 13 15 7 9 4 3 2 4 3 3 3 4 4 6 11 12 13 12
16 13 11 13 15 15 14 14 16 15 10 9 9 11 10 11 12 11 12 14 12 14 10 11 5 9 6 5 6 3 3 6 5 7 7 7 10 11
15 15 15 17 19 16 14 16 16 11 12 12 12 12 8 8 7 6 7 8 9 11 9 11 9 9 9 8 6 4 2 2 6 9 6 9 10 6
13 15 16 19 19 17 15 13 13 11 11 11 10 8 10 8 10 8 8 7 7 7 6 10 11 9 9 10 10 15 9 6 2 6 8 7 8 9
15 14 15 14 15 13 13 14 14 11 10 10 10 10 11 10 11 8 9 7 9 6 6 7 7 8 7 6 11 15 15 14 15 11 6 13 13 12
15 13 16 15 15 14 13 12 13 13 12 11 12 11 10 11 11 9 9 9 10 10 9 7 7 4 2 7 18 16 12 15 11 11 9 12 16 9
13 14 14 15 15 14 12 12 14 13 13 11 11 10 10 10 11 11 10 10 11 10 9 7 8 7 9 12 3 19 13 8 5 7 11 12 12 11
12 14 14 14 14 15 13 12 12 13 13 13 12 11 11 11 11 11 11 12 10 9 8 7 9 11 12 10 4 2 15 10 8 7 7 7 10 15
12 13 14 14 14 14 14 13 13 12 12 13 12 12 11 11 12 12 12 14 13 10 11 11 13 15 8 5 4 4 5 14 10 8 3 4 5 4
14 15 15 13 14 15 15 13 13 13 12 12 13 12 12 12 13 12 12 13 12 12 12 9 8 9 9 12 10 6 4 3 6 14 12 11 5 3
15 15 16 15 14 14 13 13 13 14 13 13 13 13 12 12 13 13 12 12 12 11 10 9 7 8 10 11 10 9 6 5 3 4 7 13 17 20
Wind_Direction
267 262 257 255 247 243 245 244 243 282 298 273 301 310 208 315 291 301 296 290 287 303 310 320 335 347 352 358 360 1 4 16 18 22 29 36 46 52
274 272 267 263 256 248 246 240 228 241 264 253 254 256 270 295 300 301 287 293 285 288 296 294 315 328 338 353 1 2 17 17 21 28 33 39 46 52
286 278 275 270 268 260 249 239 233 223 254 270 263 268 271 286 295 294 284 289 282 281 280 273 290 304 312 337 359 3 17 22 29 38 37 39 45 53
296 294 286 281 271 264 253 245 238 233 244 263 272 263 268 278 278 287 283 280 271 275 270 262 270 286 287 297 343 356 18 33 36 47 50 51 54 55
301 300 297 295 286 275 260 253 243 241 238 251 265 252 263 263 282 283 284 290 283 278 266 250 251 264 266 262 262 303 344 33 52 51 53 58 62 62
297 295 294 291 284 280 275 263 254 248 239 247 255 251 253 260 255 278 292 292 299 293 290 263 244 250 259 256 242 246 265 257 154 98 69 62 63 68
303 299 293 287 282 275 270 271 262 254 249 248 253 250 248 246 252 251 278 296 295 265 294 280 251 262 260 253 242 237 238 236 210 166 126 92 82 72
303 304 300 299 295 291 279 263 251 256 256 243 250 255 256 245 225 248 267 296 304 244 282 289 235 267 259 242 241 236 234 231 218 198 180 159 135 108
302 305 307 295 299 295 294 291 285 266 242 243 257 256 259 236 244 248 236 229 244 274 284 293 303 286 288 258 232 231 229 224 221 208 201 191 195 180
298 302 303 305 305 297 289 290 291 288 271 250 247 256 246 250 232 240 243 237 236 243 194 276 282 279 301 283 254 238 222 225 225 208 221 221 223 235
300 302 304 307 307 296 267 284 295 298 294 280 269 267 256 246 226 189 224 228 254 241 198 227 255 280 289 292 302 268 217 229 227 217 227 235 245 256
303 305 313 312 329 355 322 297 294 288 301 304 293 290 309 274 228 209 212 218 218 272 215 193 207 232 296 309 312 290 268 242 230 230 229 243 247 253
289 299 301 314 310 309 308 295 282 287 283 278 282 287 282 269 255 225 212 216 219 228 194 178 181 160 211 306 314 304 255 253 252 262 259 242 252 254
278 278 279 301 294 299 299 294 294 294 293 266 263 270 272 273 261 246 230 228 226 228 196 184 215 203 206 263 275 319 275 253 255 259 254 261 264 265
269 266 273 291 287 281 283 293 302 283 279 277 272 272 278 280 287 276 261 238 230 233 213 196 200 195 197 220 249 255 284 271 235 243 252 247 251 249
286 281 287 288 286 284 292 272 275 279 268 267 274 289 295 297 295 279 265 238 230 234 201 200 198 184 209 229 236 253 242 251 231 226 233 248 247 245
278 277 289 288 288 283 283 283 280 267 259 260 257 258 267 274 277 278 266 240 230 225 223 204 194 196 215 217 239 241 250 252 255 257 257 270 263 256
289 275 285 284 285 287 285 280 282 266 255 265 270 260 258 262 269 271 252 245 241 231 227 207 181 171 198 246 221 243 244 252 255 243 236 251 273 263
286 281 281 283 285 286 281 266 270 266 257 257 265 263 258 255 260 256 248 239 246 237 224 195 183 187 217 245 284 214 231 242 249 249 232 223 250 265
284 279 283 278 277 275 269 277 272 269 262 249 247 252 251 253 254 249 241 236 236 234 228 205 201 199 210 231 217 239 213 228 221 243 240 242 255 274
293 288 282 279 271 269 264 269 269 269 266 254 239 236 240 245 252 248 245 237 233 228 233 226 221 210 190 134 219 241 240 227 212 221 208 258 273 282
267 270 269 261 255 254 255 254 261 262 263 256 244 234 234 236 245 247 241 240 234 226 233 221 210 193 179 205 230 229 211 234 234 240 233 223 216 265
278 272 267 268 266 260 255 252 250 257 254 255 247 239 231 237 238 240 242 236 232 224 217 217 205 184 197 207 213 221 204 207 212 244 263 246 243 244